Weather in Khokhlovo

Russia / Vologda Oblast     59°08′49″N   37°23′53″E
temp.,
°C
wind,
m/s
gust,
m/s
humid.,
%
clouds,
%
prec.,
mm/h
press.,
hPa
HPBL,
m
11 may, tue
tue1100:00+6s256516 0.0 102895
03:00+5s247298 0.0 102964
06:00+7s247196 0.0 1029107
09:00+13s345122 0.0 1030415
12:00+17s334249 0.0 1029816
15:00+18sse334240 0.0 1028900
18:00+16sse35525 0.0 1028371
21:00+11sse22670 0.0 102817
12 may, wed
wed1200:00+9sse22730 0.0 102912
03:00+8sse22770 0.0 102917
06:00+10se12761 0.0 102979
09:00+16se22550 0.0 1028383
12:00+19se33470 0.0 1028733
15:00+21se23470 0.0 1026878
18:00+21e24564 0.0 1024678
21:00+15ene36840 0.0 102394
13 may, thu
thu1300:00+13ese379427 0.9 1023172
03:00+12ese269668 0.9 1023118
06:00+12se399424 0.0 1022342
09:00+15sse478447 0.0 1023577
12:00+18se476621 0.0 10211025
15:00+21se485428 0.1 10191610
18:00+20e4867100 0.3 10161075
21:00+15sse51388100 1.4 1016797
14 may, fri
fri1400:00+12ssw399691 0.0 1016451
03:00+10sse249928 0.0 1017125
06:00+10sse249649 0.0 1018165
09:00+14sse358031 0.0 1018439
12:00+18sse466892 0.0 1017919
15:00+19sse455984 0.1 1017995
18:00+17sse477497 0.0 1016428
21:00+13se2690100 0.1 1015115
15 may, sat
sat1500:00+13sse41295100 1.3 1014417
03:00+14ese4119757 1.5 1011399
06:00+14se3996100 0.0 1010443
09:00+15sse479483 0.1 1010359
12:00+21sse3568100 0.1 1009828
15:00+17sse248585 0.8 1008280
18:00+16ssw2496100 4.3 1006114
21:00+14sw119664 4.9 100511